When you browse on this site, cookies collect data to enhance your experience and personalize the content and advertising you see.
Visit our Privacy Policy to learn more. By continuing to use the site, you agree to this use of cookies and data.
  • în România
  • Lista ţărilor
  • Pe 7 zile
  • Temperatura apei
  • Hartă satelitară
  • Meteo pe hartă
  • Widget-uri
  • user-avatar
    Intrare

    Meteo pe oră la Nadżaf

    Astăzi, 19 Noiembrie, Luni

    Timp Temperatura Precipitaţii Vânt Presiune Umiditate
    00:00 +19°C° 0 mm 2 m/s 755 mmHg 57%
    01:00 +19°C° 0 mm 2 m/s 755 mmHg 58%
    02:00 +18°C° 0 mm 2 m/s 755 mmHg 59%
    03:00 +18°C° 0 mm 2 m/s 755 mmHg 60%
    04:00 +18°C° 0 mm 2 m/s 755 mmHg 60%
    05:00 +18°C° 0 mm 2 m/s 755 mmHg 60%
    06:00 +18°C° 0 mm 2 m/s 755 mmHg 61%
    07:00 +18°C° 0 mm 2 m/s 755 mmHg 57%
    08:00 +19°C° 0 mm 2 m/s 755 mmHg 54%
    09:00 +20°C° 0 mm 2 m/s 755 mmHg 51%
    10:00 +21°C° 0 mm 2 m/s 755 mmHg 48%
    11:00 +23°C° 0 mm 2 m/s 755 mmHg 45%
    12:00 +24°C° 0 mm 2 m/s 755 mmHg 42%
    13:00 +24°C° 0 mm 2 m/s 755 mmHg 41%
    14:00 +24°C° 0 mm 2 m/s 754 mmHg 40%
    15:00 +25°C° 0 mm 2 m/s 754 mmHg 38%
    16:00 +24°C° 0 mm 2 m/s 754 mmHg 40%
    17:00 +24°C° 0 mm 2 m/s 754 mmHg 42%
    18:00 +23°C° 0 mm 2 m/s 754 mmHg 44%
    19:00 +23°C° 0 mm 2 m/s 754 mmHg 46%
    20:00 +23°C° 0 mm 2 m/s 754 mmHg 47%
    21:00 +21°C° 0 mm 2 m/s 754 mmHg 48%
    22:00 +21°C° 0 mm 2 m/s 754 mmHg 49%
    23:00 +21°C° 0 mm 2 m/s 755 mmHg 49%

    Mâine, 20 Noiembrie, Marţi

    Timp Temperatura Precipitaţii Vânt Presiune Umiditate
    00:00 +21°C° 0 mm 2 m/s 755 mmHg 50%
    01:00 +20°C° 0 mm 2 m/s 755 mmHg 51%
    02:00 +20°C° 0 mm 2 m/s 755 mmHg 52%
    03:00 +20°C° 0 mm 3 m/s 755 mmHg 53%
    04:00 +19°C° 0 mm 3 m/s 755 mmHg 54%
    05:00 +19°C° 0 mm 3 m/s 755 mmHg 55%
    06:00 +18°C° 0 mm 3 m/s 755 mmHg 56%
    07:00 +19°C° 0 mm 4 m/s 755 mmHg 53%
    08:00 +20°C° 0 mm 4 m/s 756 mmHg 50%
    09:00 +21°C° 0 mm 4 m/s 756 mmHg 47%
    10:00 +22°C° 0 mm 4 m/s 756 mmHg 43%
    11:00 +23°C° 0 mm 4 m/s 756 mmHg 39%
    12:00 +25°C° 0 mm 4 m/s 756 mmHg 35%
    13:00 +25°C° 0 mm 4 m/s 755 mmHg 34%
    14:00 +25°C° 0 mm 5 m/s 755 mmHg 32%
    15:00 +26°C° 0 mm 5 m/s 755 mmHg 31%
    16:00 +25°C° 0 mm 4 m/s 755 mmHg 33%
    17:00 +24°C° 0 mm 3 m/s 755 mmHg 35%
    18:00 +22°C° 0 mm 3 m/s 755 mmHg 37%
    19:00 +23°C° 0 mm 2 m/s 755 mmHg 39%
    20:00 +21°C° 0 mm 2 m/s 755 mmHg 40%
    21:00 +21°C° 0 mm 2 m/s 755 mmHg 42%
    22:00 +20°C° 0 mm 2 m/s 755 mmHg 42%
    23:00 +20°C° 0 mm 2 m/s 755 mmHg 42%

    Poimâine, 21 Noiembrie, Miercuri

    Timp Temperatura Precipitaţii Vânt Presiune Umiditate
    00:00 +20°C° 0 mm 2 m/s 755 mmHg 43%
    01:00 +19°C° 0 mm 3 m/s 755 mmHg 43%
    02:00 +19°C° 0 mm 3 m/s 755 mmHg 44%
    03:00 +19°C° 0 mm 3 m/s 755 mmHg 44%
    04:00 +19°C° 0 mm 3 m/s 755 mmHg 45%
    05:00 +18°C° 0 mm 3 m/s 755 mmHg 46%
    06:00 +18°C° 0 mm 3 m/s 754 mmHg 47%
    07:00 +19°C° 0 mm 3 m/s 755 mmHg 45%
    08:00 +20°C° 0 mm 4 m/s 755 mmHg 43%
    09:00 +21°C° 0 mm 4 m/s 756 mmHg 40%
    10:00 +22°C° 0 mm 4 m/s 755 mmHg 37%
    11:00 +23°C° 0 mm 4 m/s 755 mmHg 33%
    12:00 +26°C° 0 mm 3 m/s 754 mmHg 30%
    13:00 +26°C° 0 mm 3 m/s 754 mmHg 28%
    14:00 +26°C° 0 mm 3 m/s 753 mmHg 27%
    15:00 +27°C° 0 mm 2 m/s 753 mmHg 26%
    16:00 +26°C° 0 mm 2 m/s 753 mmHg 29%
    17:00 +25°C° 0 mm 2 m/s 753 mmHg 31%
    18:00 +24°C° 0 mm 1 m/s 753 mmHg 34%
    19:00 +23°C° 0 mm 2 m/s 753 mmHg 34%
    20:00 +23°C° 0 mm 2 m/s 753 mmHg 35%
    21:00 +23°C° 0 mm 2 m/s 753 mmHg 35%
    22:00 +21°C° 0 mm 2 m/s 753 mmHg 36%
    23:00 +21°C° 0 mm 3 m/s 753 mmHg 36%

    22 Noiembrie, Joi

    Timp Temperatura Precipitaţii Vânt Presiune Umiditate
    00:00 +21°C° 0 mm 3 m/s 752 mmHg 37%
    01:00 +21°C° 0 mm 3 m/s 752 mmHg 37%
    02:00 +20°C° 0 mm 3 m/s 752 mmHg 38%
    03:00 +20°C° 0 mm 3 m/s 752 mmHg 39%
    04:00 +20°C° 0 mm 3 m/s 752 mmHg 39%
    05:00 +20°C° 0 mm 3 m/s 752 mmHg 40%
    06:00 +20°C° 0 mm 3 m/s 752 mmHg 41%
    07:00 +20°C° 0 mm 4 m/s 752 mmHg 40%
    08:00 +21°C° 0 mm 4 m/s 752 mmHg 39%
    09:00 +22°C° 0 mm 5 m/s 752 mmHg 38%
    10:00 +23°C° 0 mm 5 m/s 752 mmHg 36%
    11:00 +25°C° 0 mm 5 m/s 751 mmHg 35%
    12:00 +25°C° 0 mm 5 m/s 751 mmHg 33%
    13:00 +26°C° 0 mm 5 m/s 750 mmHg 33%
    14:00 +26°C° 0 mm 5 m/s 750 mmHg 32%
    15:00 +26°C° 0 mm 5 m/s 749 mmHg 32%
    16:00 +26°C° 0 mm 5 m/s 749 mmHg 34%
    17:00 +25°C° 0 mm 5 m/s 749 mmHg 35%
    18:00 +23°C° 0 mm 4 m/s 749 mmHg 37%
    19:00 +23°C° 0 mm 5 m/s 749 mmHg 39%
    20:00 +23°C° 0 mm 5 m/s 750 mmHg 42%
    21:00 +22°C° 0 mm 6 m/s 750 mmHg 44%
    22:00 +22°C° 0.2 mm 6 m/s 750 mmHg 48%
    23:00 +22°C° 0.2 mm 6 m/s 749 mmHg 52%

    23 Noiembrie, Vineri

    Timp Temperatura Precipitaţii Vânt Presiune Umiditate
    00:00 +21°C° 0.2 mm 6 m/s 749 mmHg 56%
    01:00 +21°C° 0.6 mm 6 m/s 749 mmHg 62%
    02:00 +20°C° 0.6 mm 5 m/s 749 mmHg 67%
    03:00 +20°C° 0.6 mm 5 m/s 749 mmHg 72%
    04:00 +19°C° 0.3 mm 5 m/s 749 mmHg 75%
    05:00 +19°C° 0.3 mm 4 m/s 749 mmHg 78%
    06:00 +19°C° 0.3 mm 4 m/s 749 mmHg 81%
    07:00 +19°C° 0.4 mm 4 m/s 749 mmHg 80%
    08:00 +19°C° 0.4 mm 5 m/s 750 mmHg 78%
    09:00 +20°C° 0.4 mm 5 m/s 750 mmHg 77%
    10:00 +21°C° 0 mm 5 m/s 750 mmHg 73%
    11:00 +21°C° 0 mm 5 m/s 750 mmHg 69%
    12:00 +22°C° 0 mm 5 m/s 749 mmHg 65%
    13:00 +23°C° 0 mm 5 m/s 749 mmHg 63%
    14:00 +23°C° 0 mm 4 m/s 749 mmHg 61%
    15:00 +23°C° 0 mm 4 m/s 749 mmHg 59%
    16:00 +22°C° 0.1 mm 5 m/s 749 mmHg 64%
    17:00 +21°C° 0.1 mm 5 m/s 750 mmHg 68%
    18:00 +20°C° 0.1 mm 6 m/s 750 mmHg 72%
    19:00 +20°C° 0.2 mm 6 m/s 751 mmHg 74%
    20:00 +19°C° 0.2 mm 6 m/s 751 mmHg 77%
    21:00 +19°C° 0.2 mm 6 m/s 752 mmHg 79%
    22:00 +17°C° 0 mm 6 m/s 752 mmHg 80%
    23:00 +17°C° 0 mm 6 m/s 752 mmHg 80%

    24 Noiembrie, Sâmbătă

    Timp Temperatura Precipitaţii Vânt Presiune Umiditate
    00:00 +16°C° 0 mm 6 m/s 752 mmHg 81%
    01:00 +16°C° 0 mm 6 m/s 751 mmHg 82%
    02:00 +16°C° 0 mm 6 m/s 751 mmHg 83%
    03:00 +15°C° 0 mm 6 m/s 751 mmHg 84%
    04:00 +16°C° 0.1 mm 6 m/s 752 mmHg 84%
    05:00 +16°C° 0.1 mm 6 m/s 752 mmHg 84%
    06:00 +16°C° 0.1 mm 6 m/s 752 mmHg 83%
    07:00 +16°C° 0.5 mm 6 m/s 752 mmHg 82%
    08:00 +17°C° 0.5 mm 7 m/s 753 mmHg 80%
    09:00 +18°C° 0.5 mm 7 m/s 753 mmHg 79%
    10:00 +21°C° 0.2 mm 8 m/s 752 mmHg 69%
    11:00 +23°C° 0.2 mm 8 m/s 752 mmHg 60%
    12:00 +26°C° 0.2 mm 8 m/s 752 mmHg 50%
    13:00 +26°C° 0 mm 8 m/s 751 mmHg 50%
    14:00 +26°C° 0 mm 8 m/s 750 mmHg 50%
    15:00 +26°C° 0 mm 8 m/s 750 mmHg 50%
    16:00 +24°C° 1.2 mm 8 m/s 750 mmHg 55%
    17:00 +23°C° 1.2 mm 8 m/s 750 mmHg 61%
    18:00 +22°C° 1.2 mm 8 m/s 750 mmHg 66%
    19:00 +21°C° 0.7 mm 8 m/s 750 mmHg 68%
    20:00 +21°C° 0.7 mm 8 m/s 750 mmHg 71%
    21:00 +21°C° 0.7 mm 8 m/s 750 mmHg 73%
    22:00 +21°C° 0.1 mm 7 m/s 750 mmHg 72%
    23:00 +21°C° 0.1 mm 6 m/s 750 mmHg 72%
    Arată mai mult